Regional Weather Roundup
Issued by NWS

Home | Current Version | Previous Version | Text Only | Print | Product List | Glossary On
Versions: 1 2 3 4 5 6 7 8 9 10 11 12 13 14 15 16 17 18 19 20 21 22 23 24 25 26 27 28 29 30 31 32 33 34 35 36 37 38 39 40 41 42 43 44 45 46 47 48 49 50
000
ASUS43 KOAX 011810
RWRNE

WEATHER ROUNDUP FOR NEBRASKA
NATIONAL WEATHER SERVICE OMAHA NE
100 PM CDT FRI AUG 01 2014

NOTES: SATELLITE DATA IS BEING USED TO AUGMENT CLOUD COVER ABOVE
       12000 FEET.
       "FAIR" INDICATES FEW OR NO CLOUDS BELOW 12,000 FEET WITH NO
       SIGNIFICANT WEATHER AND/OR OBSTRUCTIONS TO VISIBILITY.

  * THESE STATIONS DO NOT REPORT WEATHER SUCH AS RAIN...SNOW OR FOG.

NEZ001>004-019>022-054>056-011900-
NEBRASKA PANHANDLE

CITY           SKY/WX    TMP DP  RH WIND       PRES   REMARKS
SCOTTSBLUFF    SUNNY     85  50  29 N6        30.20F
6HR MIN TEMP:  52; 6HR MAX TEMP:  85;

ALLIANCE       SUNNY     86  38  18 MISG      30.19S
6HR MIN TEMP:  47; 6HR MAX TEMP:  87;

CHADRON        MOSUNNY   90  43  19 VRB5      30.12F
6HR MIN TEMP:  51; 6HR MAX TEMP:  91; 6HR PCP: TRACE;

KIMBALL        SUNNY     80  40  24 S3        30.25S
SIDNEY         SUNNY     87  39  18 VRB6      30.23F
6HR MIN TEMP:  50; 6HR MAX TEMP:  88;

$$

NEZ057>060-069>072-079>082-011900-
SOUTHWEST NEBRASKA

CITY           SKY/WX    TMP DP  RH WIND       PRES   REMARKS
NORTH PLATTE   SUNNY     86  51  29 S6        30.14F
6HR MIN TEMP:  52; 6HR MAX TEMP:  86;

IMPERIAL       SUNNY     88  44  21 N7        30.17F
6HR MIN TEMP:  58; 6HR MAX TEMP:  88;

LEXINGTON      SUNNY     82  56  39 CALM      30.14F
MCCOOK         SUNNY     86  57  37 SE3       30.14F
6HR MIN TEMP:  57; 6HR MAX TEMP:  86;

OGALLALA       SUNNY     84  49  29 W5        30.16F
$$

NEZ005>010-023>029-035>040-094-011900-
NORTH CENTRAL NEBRASKA

CITY           SKY/WX    TMP DP  RH WIND       PRES   REMARKS
VALENTINE      SUNNY     88  52  29 VRB3      30.12F
6HR MIN TEMP:  55; 6HR MAX TEMP:  88;

AINSWORTH      SUNNY     82  52  34 CALM      30.14F
BROKEN BOW     SUNNY     84  59  42 CALM      30.14S
6HR MIN TEMP:  54; 6HR MAX TEMP:  84;

O`NEILL        MOSUNNY   80  56  42 E6        30.14S
ORD            SUNNY     82  56  40 VRB5      30.12F
6HR MIN TEMP:  53; 6HR MAX TEMP:  82;

THEDFORD       SUNNY     87  52  30 N3        30.15F
$$

NEZ041-046>049-061>064-073>077-083>087-011900-
SOUTH CENTRAL NEBRASKA

CITY           SKY/WX    TMP DP  RH WIND       PRES   REMARKS
GRAND ISLAND   SUNNY     81  60  48 NE9       30.13S
6HR MIN TEMP:  59; 6HR MAX TEMP:  81;

AURORA         SUNNY     80  61  53 NE9       30.12R
HASTINGS       SUNNY     81  57  43 N8        30.12S
6HR MIN TEMP:  59; 6HR MAX TEMP:  81;

HEBRON         SUNNY     81  58  45 N9        30.08S
HOLDREGE       SUNNY     81  57  43 N5        30.14S
KEARNEY *      SUNNY     82  55  39 NE12      30.13F
YORK           SUNNY     77  63  61 N13       30.11S
$$

NEZ011>018-030>034-042>045-011900-
NORTHEAST NEBRASKA

CITY           SKY/WX    TMP DP  RH WIND       PRES   REMARKS
NORFOLK        SUNNY     80  58  46 NE3       30.12R
6HR MIN TEMP:  54; 6HR MAX TEMP:  80;

ALBION         SUNNY     79  56  44 NE8       30.13S
BLAIR          MOSUNNY   77  62  60 NE6       30.10S
COLUMBUS *     SUNNY     81  63  54 NE10      30.11S
FREMONT        MOSUNNY   80  61  51 CALM      30.11R
TEKAMAH        MOSUNNY   81  60  48 VRB3      30.10S
6HR MIN TEMP:  59; 6HR MAX TEMP:  81;

WAYNE          SUNNY     80  61  52 CALM      30.13R
$$

NEZ050>053-065>068-078-088>093-011900-
SOUTHEAST NEBRASKA

CITY           SKY/WX    TMP DP  RH WIND       PRES   REMARKS
LINCOLN        CLOUDY    81  61  50 E6        30.09S
6HR MIN TEMP:  63; 6HR MAX TEMP:  82;

OMAHA EPPLEY   MOSUNNY   79  63  57 E6        30.10R
6HR MIN TEMP:  66; 6HR MAX TEMP:  79;

BEATRICE       PTSUNNY   78  63  60 NE7       30.07R
FALLS CITY     PTSUNNY   80  64  58 E12       30.06S
6HR MIN TEMP:  64; 6HR MAX TEMP:  83;

NEBRASKA CITY  PTSUNNY   80  59  48 SE10G16   30.08S
PLATTSMOUTH    CLOUDY    79  61  54 E6        30.10R
$$

NEZ044-045-051>053-067-011900-
OMAHA AREA

CITY           SKY/WX    TMP DP  RH WIND       PRES   REMARKS
OMAHA EPPLEY   MOSUNNY   79  63  57 E6        30.10R
6HR MIN TEMP:  66; 6HR MAX TEMP:  79;

BLAIR          MOSUNNY   77  62  60 NE6       30.10S
FREMONT        MOSUNNY   80  61  51 CALM      30.11R
MILLARD        PTSUNNY   79  62  55 SE6       30.09S
OFFUTT AFB     MOSUNNY   81  67  62 NE8       30.09R
PLATTSMOUTH    CLOUDY    79  61  54 E6        30.10R
WAHOO          FAIR      80  62  53 E8        30.09F
$$


USA.gov is the U.S. government's official web portal to all federal, state and local government web resources and services.